Flag for France Weather past 2 weeks in Marigot, Saint Martin, France

Now
81 °F

Scattered clouds.


Feels Like: 85 °F
Forecast: N/A
Wind: 9 mph from Southeast

Location: Juliana Airport - Saint Maarten

Current Time: Jan 25, 2015 at 6:35:53 PM

Latest Report: Jan 25, 2015 at 5:00 PM


Visibility: N/A

Pressure: 30.01 "Hg

Humidity: 74%

Dew point: 72 °F

Location of MarigotLocation

Historic Weather in Marigot — Graph

°F

Marigot temperature yesterday

Maximum temperature yesterday: 82 °F (at 12:00 PM)
Minimum temperature yesterday: 77 °F (at 12:00 AM)
Average temperature yesterday: 79 °F

Past Weeks' High & Low Weather Summary

 TemperatureHumidityPressure
High84 °F (Jan 17, 2:00 PM)94% (Jan 18, 7:00 AM)30.15 "Hg (Jan 18, 7:00 AM)
Low73 °F (Jan 18, 5:00 AM)42% (Jan 11, 2:00 PM)29.95 "Hg (Jan 16, 4:00 PM)
Average79 °F75%30.02 "Hg
* Reported Jan 10 6:00 PM — Jan 25 5:00 PM, Marigot, Weather by CustomWeather, © 2014

Note: Actual official high and low records may vary slightly from our data, if they occured in-between our weather recording intervals... More about our weather records

Advertising

Marigot weather history for previous 24 hours

 ConditionsComfort  
Time TempWeatherWind HumidityBarometerVisibility
5:00 PM
Jan 25
81 °FScattered clouds.9 mph74%30.01 "HgN/A
4:00 PM82 °FPassing clouds.12 mph66%29.98 "HgN/A
3:00 PM82 °FScattered clouds.14 mph66%29.98 "HgN/A
2:00 PM84 °FPassing clouds.9 mph62%29.98 "HgN/A
1:00 PM82 °FPassing clouds.10 mph62%30.01 "HgN/A
12:00 PM82 °FScattered clouds.12 mph66%30.04 "HgN/A
11:00 AM82 °FPassing clouds.12 mph66%30.07 "HgN/A
10:00 AM82 °FScattered clouds.10 mph66%30.07 "HgN/A
9:00 AM81 °FScattered clouds.9 mph74%30.07 "HgN/A
8:00 AM81 °FScattered clouds.9 mph70%30.04 "HgN/A
7:00 AM79 °FScattered clouds.8 mph74%30.01 "HgN/A
6:00 AM77 °FWarm.7 mph79%30.01 "HgN/A
5:00 AM77 °FScattered showers. Passing clouds.6 mph79%30.01 "HgN/A
4:00 AM77 °FPassing clouds.6 mph79%29.98 "HgN/A
3:00 AM79 °FPassing clouds.6 mph74%30.01 "HgN/A
2:00 AM79 °FScattered showers. Partly cloudy.5 mph74%30.01 "HgN/A
1:00 AM77 °FScattered showers. Passing clouds.5 mph83%30.04 "HgN/A
12:00 AM77 °FScattered showers. Passing clouds.8 mph79%30.04 "HgN/A
11:00 PM
Jan 24
79 °FPassing clouds.8 mph74%30.04 "HgN/A
10:00 PM79 °FPassing clouds.6 mph74%30.04 "HgN/A
9:00 PM79 °FPassing clouds.8 mph74%30.04 "HgN/A
8:00 PM79 °FPassing clouds.6 mph74%30.04 "HgN/A
7:00 PM79 °FPassing clouds.8 mph74%30.01 "HgN/A
6:00 PM79 °FPassing clouds.8 mph74%30.01 "HgN/A
Weather by CustomWeather, © 2014

See weather overviewHow to use our weather pages